Miami, FL

5:32 AM EST on December 10, 2019 (GMT -0500)
Miami International

Weather History for KMIA - October, 2019

Change the Weather History Date:

Friday, October 11, 2019

  Actual Average Record
Temperature  
Mean Temperature 82 °F 81 °F  
Max Temperature 88 °F 87 °F 92 °F (2009)
Min Temperature 76 °F 75 °F 57 °F (1903)
Degree Days  
Heating Degree Days 0 0  
Month to date heating degree days 0 0  
Since 1 July heating degree days 0 0  
Cooling Degree Days 17 16  
Month to date cooling degree days 199 181  
Year to date cooling degree days 4290 3793  
Growing Degree Days 32 (Base 50)    
Moisture  
Dew Point 72 °F    
Average Humidity 71    
Maximum Humidity 87    
Minimum Humidity 55    
Precipitation  
Precipitation 0.95 in 0.25 in 9.00 in (1909)
Month to date precipitation 2.86 2.93  
Year to date precipitation 58.03 53.19  
Snow  
Snow 0.00 in - - ()
Month to date snowfall 0.0  
Since 1 July snowfall 0.0  
Since 1 September snowfall 0.0  
Snow Depth 0.00 in    
Sea Level Pressure  
Sea Level Pressure 29.94 in    
Wind  
Wind Speed 8 mph (NE)    
Max Wind Speed 16 mph    
Max Gust Speed 23 mph    
Visibility 8 miles    
Events Rain , Thunderstorm    
T = Trace of Precipitation, MM = Missing Value Source: NWS Daily Summary

Daily Weather History Graph

Daily Weather History Graph

Search for Another Location

Airport or City:

Astronomy

Oct. 11, 2019 Rise Set
Actual Time 7:17 AM EDT 6:57 PM EDT
Civil Twilight 6:54 AM EDT 7:20 PM EDT
Nautical Twilight 6:28 AM EDT 7:47 PM EDT
Astronomical Twilight 6:01 AM EDT 8:14 PM EDT
Moon 6:07 PM EDT (10/11) 5:18 AM EDT (10/11)
Length of Visible Light 12h 25m
Length of Day
11h 39m
Waxing Gibbous, 96% of the Moon is Illuminated
Oct 11
Waxing Gibbous
Oct 13
Full
Oct 21
Last Quarter
Oct 27
New
Nov 4
First Quarter

Hourly Weather History & Observations

Time (EDT) Temp. Heat Index Dew Point Humidity Pressure Visibility Wind Dir Wind Speed Gust Speed Precip Events Conditions
12:53 AM 79.0 °F - 73.9 °F 84% 29.94 in 10.0 mi Calm Calm - N/A   Partly Cloudy
1:53 AM 79.0 °F - 73.0 °F 82% 29.92 in 10.0 mi North 5.8 mph - N/A   Scattered Clouds
2:53 AM 79.0 °F - 73.0 °F 82% 29.91 in 10.0 mi North 4.6 mph - N/A   Scattered Clouds
3:53 AM 79.0 °F - 72.0 °F 79% 29.89 in 10.0 mi NNE 4.6 mph - N/A   Partly Cloudy
4:53 AM 79.0 °F - 73.0 °F 82% 29.90 in 10.0 mi NNE 4.6 mph - 0.01 in Rain Light Rain
5:53 AM 79.0 °F - 72.0 °F 79% 29.91 in 10.0 mi NNE 4.6 mph - 0.01 in   Mostly Cloudy
6:12 AM 79.0 °F - 72.0 °F 79% 29.91 in 10.0 mi NNE 4.6 mph - N/A   Mostly Cloudy
6:53 AM 79.0 °F - 70.0 °F 74% 29.92 in 10.0 mi NE 5.8 mph - N/A   Scattered Clouds
7:53 AM 80.1 °F 83.6 °F 71.1 °F 74% 29.94 in 10.0 mi NNE 4.6 mph - N/A   Scattered Clouds
8:53 AM 82.9 °F 87.5 °F 71.1 °F 67% 29.95 in 10.0 mi ENE 10.4 mph - N/A   Scattered Clouds
9:53 AM 84.0 °F 88.4 °F 70.0 °F 63% 29.96 in 10.0 mi East 12.7 mph - N/A   Mostly Cloudy
10:53 AM 86.0 °F 90.7 °F 70.0 °F 59% 29.96 in 10.0 mi East 11.5 mph - N/A   Scattered Clouds
11:53 AM 87.1 °F 92.0 °F 70.0 °F 57% 29.96 in 10.0 mi East 11.5 mph - N/A   Mostly Cloudy
12:53 PM 84.9 °F 89.4 °F 70.0 °F 61% 29.95 in 10.0 mi NE 10.4 mph - N/A   Mostly Cloudy
1:53 PM 84.9 °F 88.8 °F 69.1 °F 59% 29.93 in 10.0 mi ESE 10.4 mph - N/A   Scattered Clouds
2:53 PM 88.0 °F 92.1 °F 69.1 °F 53% 29.92 in 10.0 mi ESE 12.7 mph 19.6 mph N/A   Mostly Cloudy
3:29 PM 82.0 °F 86.7 °F 72.0 °F 71% 29.93 in 10.0 mi NNE 10.4 mph 20.7 mph N/A Thunderstorm Thunderstorm
3:53 PM 79.0 °F - 73.0 °F 82% 29.93 in 7.0 mi NNW 12.7 mph 19.6 mph 0.00 in Rain , Thunderstorm Light Thunderstorms and Rain
4:01 PM 78.1 °F - 73.0 °F 84% 29.93 in 10.0 mi NNW 10.4 mph - 0.00 in Rain Light Rain
4:29 PM 78.1 °F - 73.0 °F 84% 29.93 in 4.0 mi North 13.8 mph 19.6 mph 0.00 in Rain , Thunderstorm Thunderstorms and Rain
4:39 PM 77.0 °F - 73.0 °F 88% 29.93 in 2.0 mi NNE 11.5 mph 19.6 mph 0.06 in Rain , Thunderstorm Heavy Thunderstorms and Rain
4:43 PM 77.0 °F - 73.0 °F 88% 29.93 in 1.8 mi North 9.2 mph 19.6 mph 0.10 in Rain Heavy Rain
5:06 PM 77.0 °F - 73.0 °F 88% 29.93 in 8.0 mi North 6.9 mph - 0.08 in Rain , Thunderstorm Rain
5:53 PM 77.0 °F - 73.0 °F 88% 29.94 in 3.0 mi North 4.6 mph - 0.13 in Rain , Thunderstorm Thunderstorms and Rain
6:45 PM 75.9 °F - 72.0 °F 87% 29.95 in 2.5 mi NE 4.6 mph - 0.14 in Rain , Thunderstorm Thunderstorms and Rain
6:51 PM 75.2 °F - 71.6 °F 89% 29.95 in 1.2 mi NE 6.9 mph - 0.22 in Rain , Thunderstorm Heavy Thunderstorms and Rain
6:53 PM 75.9 °F - 72.0 °F 87% 29.95 in 1.2 mi ENE 5.8 mph - 0.28 in Rain , Thunderstorm Heavy Thunderstorms and Rain
7:13 PM 75.9 °F - 73.0 °F 91% 29.94 in 5.0 mi North 3.5 mph - 0.17 in Rain Rain
7:53 PM 77.0 °F - 72.0 °F 84% 29.96 in 4.0 mi NNE 8.1 mph - 0.21 in Rain Heavy Rain
8:17 PM 77.0 °F - 72.0 °F 84% 29.96 in 10.0 mi NNE 9.2 mph - 0.04 in   Overcast
8:53 PM 77.0 °F - 72.0 °F 84% 29.97 in 9.0 mi NE 8.1 mph - 0.04 in   Overcast
9:46 PM 78.1 °F - 72.0 °F 81% 29.97 in 10.0 mi NE 11.5 mph 20.7 mph 0.00 in   Overcast
9:53 PM 78.1 °F - 72.0 °F 81% 29.98 in 10.0 mi NE 9.2 mph - 0.00 in   Overcast
10:34 PM 78.1 °F - 71.1 °F 79% 29.98 in 10.0 mi ENE 12.7 mph - N/A   Mostly Cloudy
10:53 PM 78.1 °F - 71.1 °F 79% 29.99 in 10.0 mi ENE 10.4 mph - N/A   Mostly Cloudy
11:53 PM 79.0 °F - 70.0 °F 74% 29.99 in 10.0 mi ENE 9.2 mph - N/A   Mostly Cloudy